Location: Bats
(43.6587°N, 0.4584°W)
Time: 15:32:26
(UTC+00:00)

Meteor 2-13 Rocket - Pass Details

Date: 12 January 2026
Orbit: 935 x 958 km, 82.5° (Epoch: 18 February)

Event Time Altitude Azimuth Distance (km) Brightness Sun altitude
Rises 18:19:08 0° 177° (S) 3,620 7.6 -16.2°
Reaches altitude 10° 18:21:38 10° 175° (S) 2,680 6.9 -16.7°
Maximum altitude 18:27:42 67° 94° (E) 1,039 4.4 -17.7°
Drops below altitude 10° 18:33:49 10° 14° (NNE) 2,699 6.6 -18.8°
Sets 18:36:20 0° 12° (NNE) 3,647 7.3 -19.3°
